This is the latest recevied weather packets stored in our database for station/object DF5HRN-13. If no packets are shown the sender has not sent any weather packets the latest 10 day(s).
| Time | Temp. | Humidity | Pressure | Rain* | Wind** | Luminosity | Snow |
|---|---|---|---|---|---|---|---|
| 1777439705 | 7.22° C | 42% | 1031 hPa | - | - | - | - |
| 1777438805 | 6.67° C | 43% | 1031 hPa | - | - | - | - |
| 1777437905 | 6.67° C | 43% | 1031 hPa | - | - | - | - |
| 1777437005 | 6.67° C | 41% | 1031 hPa | - | - | - | - |
| 1777436105 | 6.11° C | 38% | 1030 hPa | - | - | - | - |
| 1777435205 | 5° C | 50% | 1030 hPa | - | - | - | - |
| 1777434305 | 6.11° C | 50% | 1030 hPa | - | - | - | - |
| 1777433405 | 6.11° C | 50% | 1030 hPa | - | - | - | - |
| 1777432505 | 6.11° C | 50% | 1030 hPa | - | - | - | - |
| 1777431605 | 6.11° C | 50% | 1030 hPa | - | - | - | - |
| 1777430705 | 6.67° C | 50% | 1030 hPa | - | - | - | - |
| 1777429805 | 6.67° C | 50% | 1030 hPa | - | - | - | - |
| 1777428905 | 6.67° C | 51% | 1030 hPa | - | - | - | - |
| 1777428005 | 6.67° C | 51% | 1030 hPa | - | - | - | - |
| 1777427105 | 7.22° C | 51% | 1030 hPa | - | - | - | - |
| 1777426205 | 7.78° C | 51% | 1030 hPa | - | - | - | - |
| 1777425305 | 8.33° C | 51% | 1030 hPa | - | - | - | - |
| 1777424405 | 8.33° C | 50% | 1030 hPa | - | - | - | - |
| 1777423505 | 8.33° C | 50% | 1030 hPa | - | - | - | - |
| 1777422605 | 8.89° C | 50% | 1030 hPa | - | - | - | - |
| 1777421705 | 8.33° C | 50% | 1030 hPa | - | - | - | - |
| 1777420805 | 8.89° C | 50% | 1030 hPa | - | - | - | - |
| 1777419905 | 9.44° C | 50% | 1030 hPa | - | - | - | - |
| 1777419005 | 9.44° C | 49% | 1030 hPa | - | - | - | - |
| 1777418105 | 10° C | 49% | 1030 hPa | - | - | - | - |
* Rain since midnight (hover to see other rain measurements)
** Current wind speed in m/s (hover to see current wind gust speed)